Temperature
13 14 14 14 14 14 15 15 15 15 15 15 15 15 15 15 15 15 15 15 15 15 15 15 15 15 15 15 15 15 15 15 15 15 15 14 14 14 14 14 14 14 14
14 14 14 14 14 14 14 15 15 15 15 15 15 15 15 15 15 15 15 15 15 15 15 15 15 15 15 15 15 15 15 15 15 15 14 14 14 14 14 14 14 14 14
14 14 14 14 14 14 14 14 14 14 14 14 15 14 14 14 14 15 15 15 15 15 15 15 15 15 15 15 15 14 14 15 15 15 14 14 14 14 14 14 14 14 14
13 13 13 13 13 14 14 14 14 14 14 14 14 14 14 14 14 14 14 14 15 15 15 15 14 14 14 14 14 14 14 14 14 14 14 14 14 14 14 14 14 14 14
13 13 13 13 13 13 13 13 13 13 14 14 14 14 14 14 14 14 14 14 14 14 14 14 14 14 14 14 14 14 14 14 14 14 14 14 13 13 14 14 14 14 14
13 13 13 13 13 13 13 13 13 13 13 13 13 14 14 14 14 14 14 14 14 14 14 14 14 14 14 14 14 14 14 14 14 14 14 13 13 13 13 13 13 13 13
12 13 13 13 13 13 13 13 13 13 13 13 13 13 13 13 13 13 14 14 14 14 14 14 14 14 14 14 14 14 14 14 14 14 13 13 13 13 13 13 13 13 13
12 12 12 12 12 12 12 12 13 12 13 13 13 13 13 13 13 13 13 13 13 14 14 14 13 13 13 13 14 14 13 14 13 13 13 13 13 13 13 13 13 13 13
12 12 12 12 12 12 12 12 12 12 12 12 12 13 13 13 13 13 13 13 13 13 14 13 13 13 13 13 13 13 13 13 13 13 13 13 13 13 13 13 13 13 13
11 11 12 12 12 12 12 12 12 12 12 12 12 12 12 12 13 13 13 13 13 13 13 13 13 13 13 13 13 13 13 13 13 13 13 13 13 13 13 13 13 13 13
11 11 11 11 11 11 11 11 11 11 11 12 12 12 12 12 12 12 13 13 13 13 13 13 13 13 13 13 13 13 13 13 13 13 13 13 13 13 13 13 13 13 13
10 10 10 10 10 11 11 11 11 11 11 11 11 11 11 12 12 12 12 12 12 12 12 12 12 12 12 13 12 12 13 13 13 13 13 13 13 13 13 13 13 12 12
9 9 10 10 10 10 10 10 11 11 11 11 11 11 11 11 11 11 11 11 12 12 12 12 12 12 12 12 12 12 12 13 13 13 13 13 13 12 13 13 12 12 12
8 9 9 9 9 9 10 10 10 10 10 10 10 10 10 11 11 11 11 11 11 11 11 12 12 11 12 12 12 12 12 12 12 12 12 12 12 12 13 12 12 12 12
8 8 8 8 9 9 9 9 9 9 10 10 10 10 10 10 10 10 10 10 10 11 11 11 11 11 11 11 11 12 12 12 12 12 12 12 12 12 12 12 12 12 12
7 7 7 8 8 8 8 9 9 9 9 9 9 9 9 9 10 10 10 10 10 10 10 10 11 11 11 11 11 11 11 12 12 12 12 12 12 12 12 12 12 12 12
7 7 7 7 7 8 8 8 8 8 8 9 9 9 9 9 9 9 9 9 9 9 10 10 10 10 10 10 11 11 11 11 11 12 12 12 12 12 12 11 11 12 12
6 6 7 7 7 7 7 7 8 8 8 8 8 8 8 8 9 9 9 9 9 9 9 9 10 10 10 10 10 11 11 11 11 11 11 11 11 11 11 11 11 11 11
6 6 6 6 6 6 6 7 7 7 7 7 7 8 8 8 8 8 8 8 9 9 9 9 9 9 9 10 10 10 10 10 10 11 11 11 11 11 11 11 11 11 11
5 5 6 6 6 6 6 6 6 6 7 7 7 7 7 7 8 8 8 8 8 8 8 8 9 9 9 9 9 10 10 10 10 10 10 10 10 11 11 11 11 11 11
5 5 5 5 5 5 5 5 6 6 6 6 7 7 7 7 7 7 7 7 7 8 8 8 8 8 8 9 9 9 9 9 9 10 10 10 10 10 10 10 10 10 10
4 4 5 5 5 5 5 5 5 5 5 6 6 6 7 7 7 7 7 7 7 7 7 7 8 8 8 8 8 8 8 9 9 9 9 10 10 10 10 10 10 10 10
3 3 4 4 4 4 4 4 4 4 5 5 5 6 6 6 6 6 7 7 7 7 7 7 7 7 8 8 8 8 8 8 8 9 9 9 9 10 10 10 10 10 10
3 3 3 4 4 4 4 4 4 4 4 4 5 5 5 5 6 6 6 6 6 6 6 7 7 7 7 7 7 8 8 8 8 8 9 9 9 9 9 9 9 9 9
2 2 3 3 3 3 3 3 3 3 3 4 4 4 5 5 5 5 5 5 6 6 6 6 6 6 7 7 7 7 8 8 8 8 8 8 9 9 9 9 9 9 9
2 2 2 2 3 3 3 3 3 3 3 3 4 4 4 4 5 5 5 5 5 5 6 6 6 6 6 6 7 7 7 8 8 8 8 8 8 9 9 9 9 9 9
Wind_Speed
1 2 2 4 6 7 8 9 10 10 11 11 12 13 13 13 13 14 14 14 14 14 14 14 15 15 16 17 17 17 17 17 17 17 17 17 16 16 17 17 16 16 18
1 1 3 5 6 7 8 9 9 9 10 10 11 12 12 12 12 13 13 14 14 14 14 14 14 14 15 15 16 16 16 16 17 16 16 16 15 16 16 17 16 15 17
2 2 4 5 6 7 8 9 9 9 9 10 10 11 11 11 12 12 13 13 14 14 14 13 13 13 14 14 14 15 15 15 15 15 14 13 13 14 16 16 17 16 16
3 3 4 6 7 8 9 9 9 9 9 9 9 10 11 11 11 12 12 13 13 13 13 13 12 12 13 13 14 14 14 14 14 13 12 11 11 14 15 16 16 16 16
5 5 4 7 8 8 9 9 8 8 9 9 9 9 10 10 11 11 12 12 13 13 12 12 12 11 12 12 13 14 13 14 14 12 11 11 11 13 15 15 15 15 15
7 6 6 7 8 8 8 8 8 8 8 8 8 8 9 9 10 11 11 11 12 12 12 11 11 11 11 12 12 13 13 13 13 12 11 11 11 13 14 14 14 15 15
6 7 7 7 7 8 8 8 8 8 8 8 7 8 8 9 10 10 10 10 11 10 10 10 10 10 10 11 12 12 12 13 12 11 10 10 11 12 13 14 14 14 14
6 7 8 7 7 7 7 8 8 8 8 8 7 7 8 9 10 10 9 9 9 10 9 9 9 9 10 10 11 11 11 12 11 10 9 10 11 12 13 13 13 13 13
8 8 8 7 7 6 7 6 7 7 8 7 7 7 7 9 9 9 8 8 8 8 8 8 8 8 9 10 10 11 12 12 10 9 8 9 10 12 12 12 12 13 13
8 8 8 7 7 6 5 6 6 7 7 7 7 7 8 8 8 8 8 7 7 7 7 7 7 7 8 9 10 11 11 11 10 8 8 8 10 11 11 11 12 12 12
6 6 7 8 7 6 5 4 5 6 7 7 6 7 7 7 7 7 6 6 6 6 6 6 6 6 7 8 9 10 10 9 8 7 7 8 10 10 10 11 12 12 12
4 4 6 6 7 6 4 4 4 4 5 6 6 6 5 6 6 5 5 5 5 5 5 5 5 6 6 6 8 8 8 8 8 6 6 7 9 10 9 10 10 11 11
1 3 4 5 5 5 5 4 3 4 4 4 5 5 5 5 5 5 4 4 4 4 4 4 4 4 4 5 6 6 6 7 7 5 6 7 8 9 9 9 9 10 10
2 2 3 5 5 5 4 3 3 3 3 3 3 4 4 4 3 3 3 2 2 2 3 3 3 3 3 4 6 6 6 6 6 6 5 6 7 8 8 9 9 9 10
2 2 2 3 3 4 4 3 3 2 2 2 2 2 3 3 2 2 2 2 1 1 2 2 2 2 2 3 5 6 5 5 6 5 5 6 7 7 8 8 8 8 9
1 2 2 2 3 3 3 3 2 2 1 1 2 1 3 3 2 2 1 1 1 1 2 3 2 2 2 3 3 5 5 5 5 5 5 5 7 7 7 8 8 8 8
1 2 2 2 2 2 3 3 2 2 1 1 1 1 2 2 2 2 2 1 2 2 2 2 2 3 2 2 2 3 4 5 5 5 5 5 6 6 7 7 7 7 7
1 1 2 2 2 2 2 2 2 2 1 1 1 1 2 3 3 3 2 2 2 2 2 1 1 1 2 2 1 1 2 4 5 5 5 5 6 6 6 7 7 7 7
1 1 1 1 1 1 1 2 3 2 2 1 1 1 2 3 3 2 2 2 3 2 1 1 1 1 2 2 1 1 1 2 3 4 4 5 6 6 6 7 7 6 6
1 1 0 1 1 1 1 2 2 2 3 2 1 1 1 2 3 2 2 2 3 2 1 2 2 1 2 2 2 1 0 1 2 2 4 4 5 5 6 6 6 6 6
2 2 1 0 1 1 0 0 1 2 2 2 2 2 2 2 3 2 1 2 2 3 3 3 1 2 2 2 2 1 1 0 2 2 3 3 4 5 6 6 6 6 5
4 3 2 1 1 1 1 2 2 2 2 3 2 2 3 3 3 2 2 2 2 2 3 3 3 2 2 2 2 2 1 1 1 2 2 3 3 4 5 6 6 6 6
4 4 4 3 2 2 1 1 1 1 2 2 2 2 3 3 3 3 3 2 3 3 4 4 5 3 4 3 3 3 3 4 2 2 3 3 4 3 4 5 6 6 7
4 5 4 4 3 2 1 2 2 2 3 4 3 3 4 4 3 3 3 3 3 3 4 5 4 3 5 4 3 2 2 2 3 2 2 2 3 4 4 5 6 6 7
4 4 4 4 3 3 2 2 3 3 4 3 3 3 3 3 4 4 4 3 3 3 4 5 4 4 4 5 4 2 1 1 1 3 4 3 3 4 5 5 6 7 8
5 5 5 4 4 3 2 2 3 4 4 4 4 4 4 3 3 4 4 4 4 3 4 5 5 6 5 5 4 4 3 3 3 3 4 4 4 3 4 4 6 7 8
Wind_Direction
260 309 147 110 102 102 101 98 94 88 86 83 80 79 81 83 86 87 87 86 86 86 87 88 89 88 88 86 85 84 83 82 80 78 79 82 85 86 86 84 80 78 80
226 140 132 114 109 107 105 100 98 92 89 88 85 85 84 84 84 86 88 87 86 85 84 86 87 89 89 89 88 87 87 86 83 79 77 80 83 86 88 87 84 83 82
49 105 125 110 107 108 107 101 100 95 92 90 89 89 86 84 85 85 87 87 86 85 83 84 85 87 89 90 91 90 89 90 85 81 78 80 84 88 90 90 87 86 84
56 89 117 107 109 108 103 101 102 98 94 92 91 91 89 87 85 87 87 87 86 85 85 84 85 86 87 89 91 90 90 91 87 83 77 78 85 90 92 92 90 89 87
56 75 100 109 111 113 107 102 101 101 99 97 95 93 92 91 89 86 89 89 87 86 88 87 83 85 86 87 90 90 90 92 88 83 80 81 86 92 92 91 91 91 90
51 61 83 106 112 113 112 108 103 100 100 99 96 95 96 94 91 91 90 93 91 90 89 89 84 84 87 87 89 90 93 92 87 82 81 85 90 95 94 93 94 94 93
56 53 73 85 102 109 113 112 105 104 100 99 97 97 98 96 94 93 94 96 97 95 91 89 88 82 87 91 89 90 97 95 88 83 82 87 94 97 97 96 96 97 96
63 54 58 64 86 94 106 111 107 103 101 98 97 100 100 98 97 95 95 93 100 100 97 91 88 82 84 91 92 93 95 96 89 86 84 91 99 100 98 97 97 98 99
54 50 47 49 56 84 91 100 103 100 101 98 93 95 97 99 100 100 97 94 99 104 102 96 90 83 82 89 91 92 95 93 87 87 90 93 102 104 101 101 101 100 101
49 42 33 37 42 49 78 84 92 99 98 96 93 93 97 102 105 106 102 99 98 106 108 103 94 86 85 87 89 95 95 90 89 89 94 99 107 109 106 105 105 104 104
41 33 27 24 29 37 54 78 82 99 99 97 93 93 97 101 104 107 109 109 103 106 114 110 99 93 88 87 93 99 95 94 93 89 97 106 110 113 113 110 109 107 107
28 21 22 19 20 25 35 54 75 88 96 92 87 89 94 101 103 103 114 117 112 111 119 114 101 98 88 88 91 100 100 100 95 93 101 112 117 117 114 115 114 113 112
28 22 17 14 20 24 21 37 57 71 75 88 87 85 89 92 95 97 97 102 103 113 113 105 99 95 91 100 101 105 108 102 97 94 104 120 124 124 122 121 121 119 119
38 15 7 12 22 22 26 30 45 56 54 59 84 95 97 89 87 95 100 113 109 124 123 114 113 90 88 108 111 112 112 108 104 97 99 115 129 130 131 131 128 123 121
34 1 348 3 19 24 26 29 35 34 52 76 82 102 110 104 104 109 107 115 117 139 146 134 132 91 93 109 119 124 124 119 114 110 112 120 132 136 134 134 134 129 124
359 332 337 352 18 32 27 20 22 15 46 106 98 126 132 130 132 131 137 139 142 163 177 169 160 138 134 123 122 133 138 135 128 124 127 130 132 138 140 135 129 130 129
313 327 321 332 24 32 24 12 17 6 23 54 143 184 169 145 160 159 167 186 195 188 176 157 131 127 115 113 110 135 141 144 142 139 135 135 137 141 142 138 131 126 124
326 337 321 345 17 22 19 7 2 358 3 355 197 205 202 176 172 174 182 203 195 178 156 150 123 126 120 124 119 137 143 147 150 151 145 143 140 141 144 143 138 131 128
239 250 304 1 1 358 15 15 0 348 353 329 234 220 221 189 179 187 195 203 183 167 170 162 157 144 146 138 142 119 153 158 158 161 157 156 152 148 148 150 147 144 139
278 263 327 2 341 3 24 16 1 351 352 341 317 255 229 200 187 191 202 200 179 169 189 173 169 163 164 159 137 103 191 181 161 170 171 167 165 162 161 157 154 157 155
353 353 329 343 312 11 52 293 256 256 276 298 310 265 235 220 194 180 199 197 193 188 197 177 164 159 161 146 118 86 5 120 165 182 176 171 175 175 172 169 168 168 170
346 343 329 294 278 285 221 216 226 240 246 264 287 286 240 228 206 190 182 197 207 197 196 182 157 168 196 178 161 147 162 242 234 207 188 187 185 184 183 184 183 184 183
344 333 328 319 300 295 281 247 265 292 300 287 268 270 287 247 219 210 211 207 209 197 203 199 181 180 191 213 202 174 174 201 218 225 206 202 195 191 194 199 194 191 192
320 316 314 312 309 290 276 220 214 233 252 268 251 248 281 265 238 215 217 216 209 205 207 207 198 202 187 201 223 232 226 181 176 200 235 222 211 205 202 205 206 202 194
326 319 314 322 323 317 298 238 222 246 251 270 257 252 255 272 255 226 217 222 218 220 217 211 206 209 203 207 210 215 220 227 196 177 205 221 227 221 210 207 202 203 200
339 333 327 331 325 320 300 266 237 244 257 266 264 251 249 250 254 244 225 228 228 228 229 221 211 212 217 222 222 218 205 198 202 188 194 203 220 234 218 209 203 205 206
Height
1541 1542 1542 1543 1544 1544 1544 1544 1544 1544 1544 1544 1544 1544 1545 1545 1545 1545 1545 1546 1546 1546 1546 1546 1546 1546 1546 1546 1546 1546 1546 1546 1545 1545 1545 1545 1545 1545 1544 1544 1544 1543 1543
1540 1541 1542 1543 1543 1544 1544 1544 1544 1544 1544 1545 1545 1545 1545 1545 1546 1546 1546 1546 1546 1547 1547 1547 1548 1547 1547 1547 1548 1548 1547 1547 1547 1547 1547 1547 1547 1547 1546 1546 1546 1545 1545
1540 1541 1542 1542 1543 1544 1544 1544 1544 1545 1545 1545 1545 1545 1546 1546 1546 1546 1547 1547 1547 1548 1548 1548 1548 1548 1549 1549 1549 1549 1549 1549 1549 1549 1548 1548 1548 1548 1548 1548 1547 1547 1547
1540 1541 1541 1542 1543 1543 1544 1544 1544 1545 1545 1545 1545 1546 1546 1547 1547 1547 1547 1547 1548 1548 1549 1549 1549 1549 1550 1550 1550 1550 1550 1550 1550 1550 1550 1550 1550 1550 1550 1549 1549 1549 1548
1539 1540 1541 1542 1542 1543 1543 1544 1544 1545 1545 1545 1546 1546 1546 1547 1547 1547 1548 1548 1548 1549 1549 1549 1550 1550 1550 1551 1551 1551 1551 1551 1551 1551 1551 1551 1551 1551 1551 1551 1551 1550 1550
1539 1540 1540 1541 1542 1542 1543 1543 1544 1544 1545 1545 1546 1546 1546 1547 1547 1547 1548 1548 1549 1549 1549 1550 1550 1550 1551 1551 1551 1552 1552 1552 1552 1552 1552 1552 1552 1553 1552 1552 1552 1552 1552
1538 1539 1540 1541 1542 1542 1543 1543 1544 1544 1545 1545 1545 1546 1546 1546 1547 1547 1547 1548 1549 1549 1549 1550 1550 1551 1551 1551 1552 1552 1553 1553 1553 1553 1553 1554 1554 1554 1554 1554 1553 1553 1553
1538 1539 1539 1540 1541 1542 1542 1543 1543 1544 1544 1545 1545 1546 1546 1546 1546 1547 1547 1548 1548 1549 1549 1550 1550 1551 1551 1552 1552 1553 1553 1554 1554 1554 1554 1555 1555 1555 1555 1555 1555 1555 1555
1538 1538 1539 1540 1540 1541 1542 1542 1543 1543 1544 1544 1544 1545 1545 1546 1546 1546 1547 1547 1548 1548 1549 1550 1550 1551 1551 1552 1552 1553 1554 1554 1554 1554 1555 1555 1556 1556 1556 1556 1556 1556 1556
1537 1537 1538 1539 1539 1539 1540 1541 1542 1542 1543 1543 1544 1544 1545 1545 1546 1546 1546 1547 1548 1548 1549 1549 1550 1551 1552 1552 1553 1553 1554 1554 1554 1555 1555 1556 1556 1556 1557 1557 1557 1557 1557
1536 1536 1537 1537 1538 1538 1539 1540 1541 1541 1542 1542 1543 1543 1544 1544 1545 1545 1546 1547 1547 1548 1548 1549 1550 1551 1551 1552 1552 1553 1554 1554 1555 1555 1555 1556 1556 1557 1557 1557 1558 1558 1558
1534 1535 1535 1536 1536 1537 1538 1538 1539 1540 1540 1541 1541 1542 1542 1543 1543 1544 1545 1546 1547 1547 1548 1549 1549 1550 1551 1551 1552 1553 1554 1554 1554 1555 1555 1556 1556 1557 1557 1558 1558 1558 1558
1532 1533 1533 1534 1534 1535 1536 1537 1537 1538 1538 1539 1540 1541 1541 1542 1542 1543 1544 1544 1545 1546 1547 1548 1549 1549 1550 1551 1551 1552 1553 1554 1554 1555 1555 1556 1556 1557 1557 1558 1558 1559 1559
1531 1531 1532 1532 1532 1533 1534 1534 1535 1536 1536 1537 1538 1539 1539 1540 1540 1541 1542 1543 1544 1545 1546 1547 1548 1549 1549 1550 1551 1551 1552 1553 1554 1554 1555 1555 1556 1557 1557 1558 1558 1559 1559
1528 1529 1530 1530 1530 1531 1531 1532 1533 1534 1535 1535 1536 1537 1538 1538 1539 1540 1540 1542 1543 1544 1544 1545 1547 1548 1548 1549 1550 1551 1552 1553 1553 1554 1554 1555 1556 1556 1557 1557 1558 1559 1559
1527 1527 1527 1528 1528 1528 1529 1530 1531 1531 1532 1533 1534 1535 1536 1536 1537 1538 1539 1540 1541 1542 1543 1544 1545 1546 1547 1548 1549 1550 1551 1552 1552 1553 1554 1554 1555 1556 1556 1557 1558 1558 1559
1525 1525 1525 1526 1526 1526 1526 1527 1528 1529 1530 1530 1531 1532 1533 1534 1535 1536 1537 1538 1539 1540 1541 1542 1543 1545 1546 1547 1548 1549 1549 1550 1551 1552 1553 1553 1554 1555 1556 1556 1557 1558 1559
1523 1523 1523 1523 1523 1524 1524 1524 1525 1526 1527 1527 1528 1529 1531 1531 1532 1533 1534 1535 1537 1538 1539 1540 1541 1542 1543 1545 1546 1547 1548 1549 1550 1551 1552 1552 1553 1554 1555 1556 1556 1557 1558
1521 1521 1521 1521 1521 1521 1521 1521 1522 1523 1524 1524 1525 1526 1527 1528 1529 1531 1532 1533 1534 1535 1537 1537 1539 1540 1541 1542 1544 1545 1546 1547 1548 1549 1550 1551 1552 1553 1553 1555 1555 1556 1557
1518 1518 1518 1518 1518 1518 1518 1519 1519 1520 1521 1521 1522 1522 1524 1525 1526 1528 1529 1530 1531 1532 1534 1535 1536 1538 1539 1540 1542 1543 1544 1545 1547 1548 1549 1550 1550 1551 1552 1553 1554 1555 1556
1515 1515 1515 1515 1515 1515 1515 1515 1515 1515 1517 1518 1518 1519 1521 1522 1523 1524 1525 1527 1528 1529 1530 1532 1533 1535 1536 1538 1540 1541 1542 1543 1544 1545 1546 1548 1548 1549 1551 1552 1552 1553 1554
1512 1512 1512 1512 1512 1512 1512 1512 1512 1512 1513 1514 1515 1516 1517 1518 1519 1520 1521 1523 1524 1526 1527 1528 1530 1531 1533 1535 1537 1538 1539 1542 1541 1543 1544 1545 1546 1547 1548 1550 1551 1552 1552
1510 1509 1509 1509 1509 1508 1508 1508 1509 1509 1510 1510 1510 1511 1512 1513 1515 1516 1518 1519 1520 1522 1523 1524 1526 1528 1529 1532 1534 1535 1536 1536 1538 1539 1540 1542 1543 1545 1546 1547 1548 1549 1550
1508 1507 1507 1506 1506 1505 1505 1505 1505 1505 1505 1505 1506 1507 1508 1509 1510 1512 1513 1515 1516 1518 1519 1520 1523 1524 1526 1527 1530 1532 1533 1533 1535 1535 1537 1539 1540 1541 1543 1544 1545 1546 1547
1505 1505 1504 1503 1502 1502 1502 1501 1501 1501 1501 1502 1502 1503 1504 1505 1506 1507 1509 1511 1512 1513 1515 1516 1518 1520 1522 1523 1525 1527 1528 1530 1531 1531 1532 1534 1536 1538 1539 1541 1542 1543 1544
1503 1502 1501 1500 1499 1498 1498 1498 1497 1497 1497 1497 1498 1498 1499 1500 1501 1502 1504 1506 1507 1509 1510 1511 1513 1515 1517 1519 1521 1522 1524 1525 1526 1528 1528 1530 1532 1533 1535 1537 1538 1539 1541